Zanesville, OH

11:44 AM EST on February 06, 2016 (GMT -0500)
Zanesville Municipal

Weather History for KZZV - September, 2012

Change the Weather History Date:

Wednesday, September 26, 2012

  Actual Average Record
Temperature  
Mean Temperature 65 °F 60 °F  
Max Temperature 71 °F 72 °F 88 °F (1998)
Min Temperature 58 °F 49 °F 33 °F (1950)
Degree Days  
Heating Degree Days 0 6  
Month to date heating degree days 109 71  
Since 1 July heating degree days 109 82  
Cooling Degree Days 0 1  
Month to date cooling degree days 84 75  
Year to date cooling degree days 974 752  
Growing Degree Days 14 (Base 50)    
Moisture  
Dew Point 59 °F    
Average Humidity 84    
Maximum Humidity 100    
Minimum Humidity 68    
Precipitation  
Precipitation 0.62 in 0.10 in 0.94 in (1986)
Month to date precipitation 4.93 2.61  
Year to date precipitation 26.26 29.13  
Sea Level Pressure  
Sea Level Pressure 30.05 in    
Wind  
Wind Speed 5 mph (SSW)    
Max Wind Speed 13 mph    
Max Gust Speed 20 mph    
Visibility 8 miles    
Events Rain , Thunderstorm    
T = Trace of Precipitation, MM = Missing Value Source: NWS Daily Summary

Daily Weather History Graph

Daily Weather History Graph

Search for Another Location

Airport or City:

Trip Planner

Search our weather history database for the weather conditions in past years. The results will help you decide how hot, cold, wet, or windy it might be!

Date:

Astronomy

Sep. 26, 2012 Rise Set
Actual Time 7:19 AM EDT 7:17 PM EDT
Civil Twilight 6:52 AM EDT 7:44 PM EDT
Nautical Twilight 6:20 AM EDT 8:15 PM EDT
Astronomical Twilight 5:49 AM EDT 8:47 PM EDT
Moon 5:15 PM EDT (9/26) 3:44 AM EDT (9/26)
Length of Visible Light 12h 51m
Length of Day
11h 57m
Waxing Gibbous, 88% of the Moon is Illuminated
Sep 26
Waxing Gibbous
Sep 29
Full
Oct 8
Last Quarter
Oct 15
New
Oct 21
First Quarter

Hourly Weather History & Observations

Time (EDT) Temp. Dew Point Humidity Pressure Visibility Wind Dir Wind Speed Gust Speed Precip Events Conditions
12:08 AM 57.2 °F 55.4 °F 94% 30.03 in 10.0 mi SSE 6.9 mph - N/A   Mostly Cloudy
12:53 AM 57.9 °F 55.9 °F 93% 30.03 in 10.0 mi SSE 4.6 mph - N/A   Mostly Cloudy
1:53 AM 57.9 °F 55.9 °F 93% 30.02 in 4.0 mi South 6.9 mph - 0.08 in Rain , Thunderstorm Light Thunderstorms and Rain
1:58 AM 57.2 °F 55.4 °F 94% 30.02 in 1.8 mi SSW 8.1 mph - 0.06 in Rain , Thunderstorm Heavy Thunderstorms and Rain
2:10 AM 59.0 °F 57.2 °F 94% 30.01 in 3.0 mi South 9.2 mph - 0.13 in Rain , Thunderstorm Light Thunderstorms and Rain
2:39 AM 57.2 °F 57.2 °F 100% 30.01 in 10.0 mi SSE 6.9 mph - 0.13 in Rain , Thunderstorm Light Thunderstorms and Rain
2:53 AM 57.9 °F 57.0 °F 97% 30.00 in 8.0 mi SSE 4.6 mph - 0.13 in Thunderstorm Thunderstorm
3:08 AM 57.2 °F 57.2 °F 100% 30.00 in 7.0 mi SSE 4.6 mph - N/A Thunderstorm Mostly Cloudy
3:45 AM 59.0 °F 57.2 °F 94% 30.02 in 10.0 mi Calm Calm - N/A   Overcast
3:53 AM 59.0 °F 57.0 °F 93% 30.02 in 10.0 mi Calm Calm - N/A Thunderstorm Overcast
4:04 AM 59.0 °F 57.2 °F 94% 30.03 in 8.0 mi Calm Calm - N/A Thunderstorm Overcast
4:15 AM 59.0 °F 57.2 °F 94% 30.02 in 7.0 mi Calm Calm - 0.01 in Rain , Thunderstorm Light Rain
4:29 AM 60.8 °F 57.2 °F 88% 30.01 in 3.0 mi Calm Calm - 0.05 in Rain , Thunderstorm Light Rain
4:36 AM 60.8 °F 57.2 °F 88% 30.00 in 3.0 mi Calm Calm - 0.06 in Rain Light Rain
4:53 AM 59.0 °F 57.9 °F 96% 30.00 in 9.0 mi South 3.5 mph - 0.06 in   Overcast
5:53 AM 60.1 °F 59.0 °F 96% 30.03 in 10.0 mi South 8.1 mph - N/A   Mostly Cloudy
6:53 AM 61.0 °F 59.0 °F 93% 30.03 in 10.0 mi South 9.2 mph - 0.00 in   Overcast
7:53 AM 61.0 °F 59.0 °F 93% 30.05 in 10.0 mi SSW 5.8 mph - 0.01 in   Overcast
8:53 AM 62.1 °F 59.0 °F 90% 30.07 in 10.0 mi SSW 6.9 mph - N/A   Scattered Clouds
9:53 AM 63.0 °F 60.1 °F 90% 30.07 in 10.0 mi SW 5.8 mph - N/A   Overcast
10:53 AM 64.0 °F 61.0 °F 90% 30.08 in 10.0 mi SSW 9.2 mph - 0.00 in   Overcast
11:02 AM 64.4 °F 60.8 °F 88% 30.09 in 10.0 mi SW 9.2 mph 17.3 mph N/A   Overcast
11:53 AM 64.0 °F 61.0 °F 90% 30.07 in 6.0 mi SW 8.1 mph - 0.01 in Rain Light Rain
12:53 PM 64.9 °F 62.1 °F 90% 30.06 in 10.0 mi SSW 8.1 mph - 0.00 in   Overcast
1:07 PM 64.4 °F 62.6 °F 94% 30.08 in 10.0 mi SSW 8.1 mph - N/A   Overcast
1:32 PM 66.2 °F 60.8 °F 83% 30.06 in 10.0 mi SSW 11.5 mph - N/A   Mostly Cloudy
1:53 PM 66.9 °F 61.0 °F 81% 30.06 in 10.0 mi SSW 8.1 mph - N/A   Overcast
2:25 PM 66.2 °F 60.8 °F 83% 30.06 in 10.0 mi SSW 6.9 mph - 0.00 in Rain Light Rain
2:53 PM 66.9 °F 61.0 °F 81% 30.05 in 10.0 mi SSW 6.9 mph - 0.00 in   Mostly Cloudy
3:53 PM 68.0 °F 61.0 °F 78% 30.06 in 10.0 mi SW 5.8 mph - N/A   Clear
4:53 PM 71.1 °F 61.0 °F 70% 30.07 in 10.0 mi SSW 8.1 mph - N/A   Scattered Clouds
5:53 PM 71.6 °F 60.8 °F 69% 30.07 in 10.0 mi SSW 5.8 mph - N/A   Scattered Clouds
6:53 PM 69.1 °F 61.0 °F 75% 30.07 in 10.0 mi South 5.8 mph - N/A   Mostly Cloudy
7:53 PM 66.0 °F 61.0 °F 84% 30.08 in 10.0 mi Calm Calm - N/A   Clear
8:53 PM 66.0 °F 62.1 °F 87% 30.09 in 10.0 mi Calm Calm - N/A   Overcast
9:53 PM 64.0 °F 62.1 °F 93% 30.09 in 9.0 mi SSE 3.5 mph - 0.00 in   Overcast
10:53 PM 64.0 °F 62.1 °F 93% 30.09 in 6.0 mi Calm Calm - 0.00 in Rain Light Rain
11:53 PM 62.6 °F 62.6 °F 100% 30.12 in 3.0 mi NNW 4.6 mph - N/A Rain Heavy Rain